BAW969 EHAM-EGLL

Flight info

Callsign BAW969
Flight time N/A
Altitude 24000
Route IDRID L980 LOGAN
Aircraft A20N/M-SDE2E3FGHIRWXY/LB1

Departure

Time 2026-04-29 11:05
Airport Amsterdam Airport Schiphol (EHAM)

Arrival

Time N/A
Airport London Heathrow Airport (EGLL)
Time Latitude Longitude Altitude Speed Heading
2026-04-29 10:33 52.32223 4.74683 -3 ft 0 kts 138°
2026-04-29 10:50 52.32227 4.74676 -4 ft 0 kts 80°
2026-04-29 10:50 52.32226 4.74678 -4 ft 2 kts 92°
2026-04-29 10:50 52.32216 4.74667 -4 ft 2 kts 287°
2026-04-29 10:50 52.32215 4.74669 -4 ft 0 kts 273°
2026-04-29 10:53 52.32215 4.74670 -4 ft 0 kts 273°
2026-04-29 10:53 52.32215 4.74672 -4 ft 0 kts 273°
2026-04-29 10:53 52.32217 4.74635 -4 ft 8 kts 274°
2026-04-29 10:53 52.32222 4.74495 -4 ft 16 kts 274°
2026-04-29 10:54 52.32285 4.74364 -5 ft 17 kts 356°
2026-04-29 10:54 52.32306 4.74364 -4 ft 0 kts
2026-04-29 10:55 52.32318 4.74364 -4 ft 4 kts
2026-04-29 10:55 52.32358 4.74365 -3 ft 7 kts
2026-04-29 10:55 52.32370 4.74366 -3 ft 8 kts
2026-04-29 10:56 52.32403 4.74368 -2 ft 5 kts
2026-04-29 10:56 52.32498 4.74378 -1 ft 23 kts
2026-04-29 10:56 52.32673 4.74399 0 ft 27 kts
2026-04-29 10:56 52.32870 4.74418 -4 ft 30 kts
2026-04-29 10:57 52.33089 4.74437 -6 ft 32 kts
2026-04-29 10:57 52.33304 4.74458 -5 ft 27 kts
2026-04-29 10:57 52.33456 4.74388 -3 ft 23 kts 302°
2026-04-29 10:57 52.33476 4.74116 -3 ft 27 kts 272°
2026-04-29 10:58 52.33487 4.73784 -3 ft 31 kts 271°
2026-04-29 10:58 52.33347 4.73598 -1 ft 30 kts 183°
2026-04-29 10:58 52.33132 4.73577 0 ft 32 kts 183°
2026-04-29 10:58 52.32899 4.73555 -4 ft 36 kts 183°
2026-04-29 10:59 52.32643 4.73531 -7 ft 38 kts 182°
2026-04-29 10:59 52.32373 4.73509 -4 ft 36 kts 183°
2026-04-29 10:59 52.32260 4.73500 -3 ft 9 kts 182°
2026-04-29 10:59 52.32189 4.73492 1 ft 11 kts 189°
2026-04-29 11:00 52.32143 4.73399 1 ft 13 kts 264°
2026-04-29 11:00 52.32178 4.73228 -1 ft 19 kts 310°
2026-04-29 11:00 52.32277 4.73082 -4 ft 23 kts 324°
2026-04-29 11:00 52.32325 4.73019 -4 ft 25 kts 320°
2026-04-29 11:01 52.32460 4.72832 -4 ft 21 kts 319°
2026-04-29 11:01 52.32509 4.72761 -4 ft 10 kts 319°
2026-04-29 11:01 52.32586 4.72655 -4 ft 18 kts 319°
2026-04-29 11:01 52.32690 4.72499 0 ft 22 kts 313°
2026-04-29 11:02 52.32801 4.72293 0 ft 26 kts 311°
2026-04-29 11:02 52.32934 4.72048 -4 ft 31 kts 313°
2026-04-29 11:02 52.33085 4.71768 -2 ft 34 kts 311°
2026-04-29 11:02 52.33096 4.71441 -1 ft 33 kts 221°
2026-04-29 11:03 52.32958 4.71239 -3 ft 18 kts 221°
2026-04-29 11:03 52.32906 4.71163 -3 ft 6 kts 222°
2026-04-29 11:03 52.32880 4.71117 -4 ft 8 kts 232°
2026-04-29 11:03 52.32866 4.71068 -4 ft 4 kts 253°
2026-04-29 11:04 52.32885 4.70905 -4 ft 21 kts 317°
2026-04-29 11:04 52.33045 4.70901 -7 ft 31 kts
2026-04-29 11:04 52.33565 4.70995 -1 ft 118 kts
2026-04-29 11:04 52.34613 4.71019 129 ft 174 kts
2026-04-29 11:05 52.35953 4.71091 523 ft 213 kts
2026-04-29 11:05 52.37580 4.71406 958 ft 254 kts 14°
2026-04-29 11:05 52.39378 4.71922 1464 ft 255 kts 14°
2026-04-29 11:05 52.41059 4.72226 1862 ft 234 kts
2026-04-29 11:06 52.42624 4.71833 2227 ft 223 kts 349°
2026-04-29 11:06 52.43992 4.70737 2486 ft 218 kts 332°
2026-04-29 11:06 52.45071 4.69032 2744 ft 215 kts 311°
2026-04-29 11:06 52.45833 4.66960 2926 ft 208 kts 305°
2026-04-29 11:07 52.46539 4.64917 2911 ft 210 kts 304°
2026-04-29 11:07 52.47231 4.62756 2920 ft 216 kts 301°
2026-04-29 11:07 52.47667 4.60370 2854 ft 224 kts 273°
2026-04-29 11:07 52.47463 4.57888 2705 ft 217 kts 247°
2026-04-29 11:08 52.46927 4.55599 2787 ft 225 kts 245°
2026-04-29 11:08 52.46121 4.53155 3364 ft 267 kts 230°
2026-04-29 11:08 52.44933 4.51041 3696 ft 237 kts 212°
2026-04-29 11:08 52.43593 4.49570 3538 ft 229 kts 204°
2026-04-29 11:09 52.42323 4.48057 3417 ft 228 kts 220°
2026-04-29 11:09 52.41406 4.45907 3188 ft 232 kts 235°
2026-04-29 11:09 52.40603 4.43611 2972 ft 231 kts 237°
2026-04-29 11:09 52.39890 4.41333 3024 ft 213 kts 241°
2026-04-29 11:10 52.39292 4.39199 2919 ft 207 kts 242°
2026-04-29 11:10 52.38707 4.37026 2797 ft 224 kts 242°
2026-04-29 11:10 52.38023 4.34707 3924 ft 236 kts 240°
2026-04-29 11:10 52.37493 4.33003 4458 ft 260 kts 238°
2026-04-29 11:11 52.36618 4.30181 5286 ft 295 kts 241°
2026-04-29 11:11 52.35741 4.27245 6021 ft 270 kts 242°
2026-04-29 11:11 52.34951 4.24690 6724 ft 234 kts 239°
2026-04-29 11:11 52.34159 4.22341 7472 ft 244 kts 238°
2026-04-29 11:12 52.33293 4.19830 8251 ft 263 kts 238°
2026-04-29 11:12 52.32313 4.17232 9032 ft 277 kts 233°
2026-04-29 11:12 52.31164 4.14667 9829 ft 281 kts 231°
2026-04-29 11:12 52.29987 4.12093 10566 ft 287 kts 231°
2026-04-29 11:13 52.28739 4.09390 11232 ft 309 kts 231°
2026-04-29 11:13 52.27376 4.06506 11769 ft 334 kts 230°
2026-04-29 11:13 52.25889 4.03421 12250 ft 359 kts 230°
2026-04-29 11:13 52.24288 4.00117 12673 ft 383 kts 230°
2026-04-29 11:14 52.22581 3.96611 12932 ft 407 kts 230°
2026-04-29 11:14 52.20793 3.92944 12977 ft 414 kts 230°
2026-04-29 11:14 52.19013 3.89259 12979 ft 413 kts 230°
2026-04-29 11:14 52.17231 3.85571 12978 ft 413 kts 230°
2026-04-29 11:15 52.15415 3.81827 12981 ft 431 kts 230°
2026-04-29 11:15 52.13555 3.77998 13175 ft 442 kts 230°
2026-04-29 11:15 52.11647 3.74069 14142 ft 441 kts 230°
2026-04-29 11:15 52.09768 3.70094 14944 ft 445 kts 231°
2026-04-29 11:16 52.07869 3.66077 15639 ft 450 kts 231°
2026-04-29 11:16 52.05947 3.62044 16406 ft 454 kts 231°
2026-04-29 11:16 52.03965 3.57911 17102 ft 460 kts 231°
2026-04-29 11:16 52.02006 3.53849 17778 ft 464 kts 231°
2026-04-29 11:17 51.99999 3.49716 18534 ft 467 kts 231°
2026-04-29 11:17 51.97966 3.45542 19012 ft 476 kts 231°
2026-04-29 11:17 51.95900 3.41283 19532 ft 481 kts 231°
2026-04-29 11:17 51.93852 3.37017 20315 ft 479 kts 231°
2026-04-29 11:18 51.91839 3.32687 20889 ft 484 kts 232°
2026-04-29 11:18 51.89815 3.28302 21458 ft 487 kts 232°
2026-04-29 11:18 51.87782 3.23888 22084 ft 490 kts 233°
2026-04-29 11:18 51.86040 3.19100 22505 ft 498 kts 244°
2026-04-29 11:19 51.84877 3.13847 22914 ft 498 kts 254°
2026-04-29 11:19 51.84195 3.08318 22941 ft 503 kts 262°
2026-04-29 11:19 51.83802 3.02712 22938 ft 500 kts 265°
2026-04-29 11:19 51.83485 2.97115 22941 ft 496 kts 265°
2026-04-29 11:20 51.83171 2.91542 22936 ft 500 kts 265°
2026-04-29 11:20 51.82866 2.85879 22942 ft 505 kts 265°
2026-04-29 11:20 51.82567 2.80256 22942 ft 499 kts 264°
2026-04-29 11:20 51.82221 2.74653 22944 ft 502 kts 264°
2026-04-29 11:21 51.81867 2.69016 22948 ft 507 kts 264°
2026-04-29 11:21 51.81511 2.63366 22945 ft 501 kts 264°
2026-04-29 11:21 51.81151 2.57866 22945 ft 500 kts 263°
2026-04-29 11:21 51.80745 2.52259 22946 ft 505 kts 263°
2026-04-29 11:22 51.80329 2.46636 22943 ft 502 kts 263°
2026-04-29 11:22 51.79914 2.41046 22941 ft 498 kts 262°
2026-04-29 11:22 51.79526 2.35446 22921 ft 504 kts 263°
2026-04-29 11:22 51.79147 2.29819 22716 ft 500 kts 263°
2026-04-29 11:23 51.78765 2.24265 22729 ft 493 kts 262°
2026-04-29 11:23 51.78402 2.18870 22576 ft 472 kts 262°
2026-04-29 11:23 51.78061 2.13687 22132 ft 458 kts 263°
2026-04-29 11:23 51.77736 2.08619 21573 ft 448 kts 264°
2026-04-29 11:24 51.77443 2.03671 21016 ft 438 kts 263°
2026-04-29 11:24 51.77158 1.98828 20469 ft 430 kts 263°
2026-04-29 11:24 51.76874 1.94055 19934 ft 426 kts 264°
2026-04-29 11:24 51.76600 1.89353 19422 ft 426 kts 263°
2026-04-29 11:25 51.76325 1.84613 18902 ft 421 kts 263°
2026-04-29 11:25 51.76049 1.79939 18355 ft 415 kts 263°
2026-04-29 11:25 51.75775 1.75292 17769 ft 417 kts 263°
2026-04-29 11:25 51.75496 1.70637 17199 ft 414 kts 263°
2026-04-29 11:26 51.74941 1.61536 16160 ft 400 kts 263°
2026-04-29 11:26 51.74664 1.57061 15991 ft 404 kts 263°
2026-04-29 11:26 51.74387 1.52509 15937 ft 406 kts 263°
2026-04-29 11:27 51.74111 1.48015 15696 ft 400 kts 263°
2026-04-29 11:27 51.73837 1.43562 15111 ft 398 kts 263°
2026-04-29 11:27 51.73572 1.39107 14428 ft 397 kts 263°
2026-04-29 11:27 51.73279 1.34684 13764 ft 394 kts 262°
2026-04-29 11:28 51.72971 1.30306 13115 ft 390 kts 262°
2026-04-29 11:28 51.72666 1.25989 12554 ft 384 kts 263°
2026-04-29 11:28 51.72395 1.21716 11971 ft 380 kts 263°
2026-04-29 11:28 51.72142 1.17560 11762 ft 365 kts 263°
2026-04-29 11:29 51.71903 1.13612 11567 ft 351 kts 263°
2026-04-29 11:29 51.71663 1.09700 11200 ft 344 kts 263°
2026-04-29 11:29 51.71432 1.05927 10837 ft 338 kts 263°
2026-04-29 11:29 51.71204 1.02192 10475 ft 332 kts 263°
2026-04-29 11:30 51.70977 0.98515 10102 ft 327 kts 263°
2026-04-29 11:30 51.70761 0.94882 9706 ft 323 kts 263°
2026-04-29 11:30 51.70498 0.91312 9309 ft 318 kts 260°
2026-04-29 11:30 51.70203 0.87802 8926 ft 315 kts 261°
2026-04-29 11:31 51.69927 0.84316 8546 ft 312 kts 261°
2026-04-29 11:31 51.69658 0.80856 8166 ft 309 kts 261°
2026-04-29 11:31 51.69394 0.77460 7971 ft 302 kts 261°
2026-04-29 11:31 51.69127 0.74048 7944 ft 309 kts 261°
2026-04-29 11:32 51.68859 0.70622 7939 ft 306 kts 261°
2026-04-29 11:32 51.68593 0.67219 7944 ft 307 kts 261°
2026-04-29 11:32 51.68350 0.63814 7939 ft 306 kts 262°
2026-04-29 11:32 51.68108 0.60399 7942 ft 307 kts 262°
2026-04-29 11:33 51.67872 0.56950 8190 ft 314 kts 262°
2026-04-29 11:33 51.67636 0.53447 8306 ft 312 kts 262°
2026-04-29 11:33 51.67400 0.49970 8324 ft 309 kts 262°
2026-04-29 11:33 51.67165 0.46556 8323 ft 307 kts 262°
2026-04-29 11:34 51.66940 0.43123 8319 ft 307 kts 262°
2026-04-29 11:34 51.66713 0.39710 8324 ft 307 kts 262°
2026-04-29 11:34 51.66487 0.36285 8320 ft 309 kts 262°
2026-04-29 11:34 51.66243 0.32856 8334 ft 308 kts 261°
2026-04-29 11:35 51.65987 0.29402 8324 ft 311 kts 261°
2026-04-29 11:35 51.65731 0.25969 8316 ft 306 kts 261°
2026-04-29 11:35 51.65479 0.22558 8319 ft 309 kts 261°
2026-04-29 11:35 51.65221 0.19143 8320 ft 305 kts 261°
2026-04-29 11:36 51.64961 0.15746 8325 ft 310 kts 261°
2026-04-29 11:36 51.64699 0.12297 8320 ft 308 kts 261°
2026-04-29 11:36 51.64445 0.08851 8323 ft 308 kts 261°
2026-04-29 11:36 51.64213 0.05411 8319 ft 309 kts 262°
2026-04-29 11:37 51.63990 0.01989 8324 ft 309 kts 263°
2026-04-29 11:37 51.63797 -0.01452 8418 ft 307 kts 263°
2026-04-29 11:37 51.63609 -0.04858 8420 ft 306 kts 263°
2026-04-29 11:37 51.63425 -0.08261 8409 ft 299 kts 263°
2026-04-29 11:38 51.63250 -0.11528 8307 ft 287 kts 263°
2026-04-29 11:38 51.63092 -0.14632 8196 ft 277 kts 263°
2026-04-29 11:38 51.62938 -0.17687 7943 ft 274 kts 263°
2026-04-29 11:38 51.62779 -0.20790 7620 ft 273 kts 263°
2026-04-29 11:39 51.62615 -0.23814 7481 ft 272 kts 263°
2026-04-29 11:39 51.62448 -0.26856 7462 ft 274 kts 263°
2026-04-29 11:39 51.62280 -0.29912 7463 ft 274 kts 263°
2026-04-29 11:39 51.62112 -0.32961 7298 ft 274 kts 263°